Regional Weather Roundup
Issued by NWS

Home | Current Version | Previous Version | Text Only | Print | Product List | Glossary Off
Versions: 1 2 3 4 5 6 7 8 9 10 11 12 13 14 15 16 17 18 19 20 21 22 23 24 25 26 27 28 29 30 31 32 33 34 35 36 37 38 39 40 41 42 43 44 45 46 47 48 49 50

967
ASUS43 KLOT 260509
RWRIL

ILLINOIS REGIONAL WEATHER ROUNDUP
NATIONAL WEATHER SERVICE CHICAGO/ROMEOVILLE IL
1200 AM CDT SAT MAY 26 2018

NOTE: "FAIR" INDICATES FEW OR NO CLOUDS BELOW 12,000 FEET WITH NO
SIGNIFICANT WEATHER AND/OR OBSTRUCTIONS TO VISIBILITY.

* THESE STATIONS ARE NOT UNDER NWS QUALITY CONTROL. THEY ALSO MAY NOT
  REPORT WEATHER SUCH AS PRECIPITATION OR FOG.

ILZ001-002-007-009-015-016-024-260600-
NORTHWEST ILLINOIS

CITY           SKY/WX    TMP DP  RH WIND       PRES   REMARKS
MOLINE         LGT RAIN  68  63  84 S7        29.81F
STERLING*        N/A    N/A N/A N/A MISG        N/A
SAVANNA*       FAIR      64  63  94 SW7       29.76F
$$

ILZ003-004-008-010-011-017-018-260600-
NORTH CENTRAL ILLINOIS

CITY           SKY/WX    TMP DP  RH WIND       PRES   REMARKS
ROCKFORD       FAIR      70  61  73 SW9       29.78F
FREEPORT*      FAIR      66  59  77 S5        29.76F
ROCHELLE*      MOCLDY    70  66  88 SW9       29.80F
DE KALB*       CLOUDY    72  67  85 SW13      29.81F
PERU*          MOCLDY    73  68  84 NW8G20    29.83R
$$

ILZ005-006-012>014-019>023-260600-
NORTHEAST ILLINOIS

CITY           SKY/WX    TMP DP  RH WIND       PRES   REMARKS
CHICAGO-OHARE  CLOUDY    76  65  68 SW13      29.78F
CHICAGO-MIDWAY LGT RAIN  72  69  90 SW9       29.79F
AURORA         CLOUDY    72  69  90 SW7       29.81F
LANSING*       DRIZZLE   72  69  89 SW8       29.82S
JOLIET*        FAIR      72  70  93 CALM      29.81F
WAUKEGAN       FAIR      74  64  71 SW12      29.77S
DUPAGE AIRPORT LGT RAIN  72  69  90 SW12      29.80F
KANKAKEE*      LGT RAIN  70  66  88 S3        29.82F
WHEELING       RAIN      75  68  78 SW7G22    29.80S
MORRIS*        MOCLDY    71  66  84 SW6       29.79F
ROMEOVILLE*    MOCLDY    71  67  85 SW7       29.81F
NORTHERLY ISL    N/A     74  63  68 S12         N/A
$$

LMZ740>746-260600-
SOUTHERN LAKE MICHIGAN

STATION/POSITION SKY/WX   TEMP    WIND        PRES    VSBY  WAVE
                          AIR SEA DIR/SP/G                  HT/PER
                          (F)     (DEG/KT/KT) (MB)    (MI)  (FT/S)
SOUTHERN BUOY              54 39  210/  8/ 10 1008.0F         0
WILMETTE HARBOR            69 56  210/  8/ 10   N/A           0
HARRISON CRIB              74     210/ 15/ 18   N/A
BURNHAM HARBOR             74     240/  5/ 11   N/A
CALUMET HARBOR             70      90/  2/  3 1008.8F
BURNS HARBOR               66     270/  7/ 11 1010.2R
MICHIGAN CITY              68     260/ 18/ 19   N/A
MICHIGAN CITY 6N           64 60  300/ 12/ 14   N/A           1
ST. JOSEPH                 66 58  260/ 16/ 19 1008.9          1
$$

ILZ025>027-034>036-040-047-049-050-058-095>099-260600-
WEST-CENTRAL ILLINOIS

CITY           SKY/WX    TMP DP  RH WIND       PRES   REMARKS
QUINCY         CLOUDY    68  65  90 SE6       29.81F
GALESBURG*     FAIR      67  65  96 CALM      29.84R
MACOMB*        PTCLDY    67  66  97 CALM      29.83F
JACKSONVILLE*  CLOUDY    68  67  97 CALM      29.82S
PITTSFIELD*    CLOUDY    70  69  99 CALM      29.83F
$$

ILZ028>032-037-038-041>044-048-051>054-059>061-260600-
CENTRAL ILLINOIS

CITY           SKY/WX    TMP DP  RH WIND       PRES   REMARKS
PONTIAC        LGT RAIN  71  70  98 S6        29.82F
BLOOMINGTON    LGT RAIN  69  67  93 S8        29.83F
DECATUR        FAIR      70  68  93 S6        29.84F
PEORIA         FAIR      67  66  97 CALM      29.82F FOG
LACON*         CLOUDY    68  68  99 CALM      29.81F
LINCOLN*       FAIR      71  71 100 CALM      29.82F
SPRINGFIELD    FAIR      72  70  93 CALM      29.82F
TAYLORVILLE    CLOUDY    69  69  99 SE5       29.83F
$$

ILZ033-039-045-046-055>057-062-063-260600-
EAST-CENTRAL ILLINOIS

CITY           SKY/WX    TMP DP  RH WIND       PRES   REMARKS
CHAMPAIGN      FAIR      70  70 100 S5        29.83F
DANVILLE*      CLOUDY    70  69  99 CALM      29.82S
RANTOUL*       FAIR      71  70  98 S3        29.83F
MATTOON        FAIR      70  67  90 SW5       29.84F
PARIS*         FAIR      71  64  80 SW6       29.85F
$$

ILZ079-100>102-260600-
SOUTHWEST ILLINOIS

CITY           SKY/WX    TMP DP  RH WIND       PRES   REMARKS
ALTON          CLOUDY    73  68  85 SW8       29.84F
BELLEVILLE     CLOUDY    71  66  84 SW5       29.84S
CAHOKIA*       MOCLDY    73  65  75 SW7       29.84S
SPARTA*        CLOUDY    70  70 100 S6        29.86F
$$

ILZ064>066-069>071-074>076-080>082-084>086-088>090-092>094-260600-
SOUTH-CENTRAL ILLINOIS

CITY           SKY/WX    TMP DP  RH WIND       PRES   REMARKS
CARBONDALE     FAIR      67  66  97 S3        29.86S
CAIRO*         FAIR      71  69  96 S8        29.87S
EFFINGHAM*     FAIR      67  67  99 SE3       29.87F
MARION         FAIR      69  68  98 SW6       29.88R
MT. VERNON     FAIR      67  66  97 CALM      29.87S
CENTRALIA*     CLOUDY    68  68  99 CALM      29.85S
SALEM*         FAIR      70  67  90 S3        29.86S
METROPOLIS*    FAIR      69  68  98 SE3       29.88S
$$

ILZ067-068-072-073-078-083-087-091-260600-
SOUTHEAST ILLINOIS

CITY           SKY/WX    TMP DP  RH WIND       PRES   REMARKS
LAWRENCEVILLE  FAIR      75  63  66 SW7       29.86S
FLORA*         FAIR      69  68  96 SW3       29.86F FOG
FAIRFIELD*     FAIR      69  68  98 CALM      29.85F
HARRISBURG*    FAIR      69  69  99 CALM      29.87F
ROBINSON*      FAIR      70  66  89 SW3       29.86F
CARMI*         FAIR      71  67  89 CALM      29.87S
$$

ABBREVIATIONS USED IN REMARKS
   TC - TEMPERATURE IN CELSIUS
  WCI - WIND CHILL INDEX
   HX - HEAT INDEX
  VSB - VISIBILITY
$$





USA.gov is the U.S. government's official web portal to all federal, state and local government web resources and services.